Weather History for St. Johnsbury, VT

Change the Weather History Date:

Monday, November 19, 2012

  Actual Average Record
Temperature  
Mean Temperature 31 °F 35 °F  
Max Temperature 44 °F 43 °F 66 °F (1941)
Min Temperature 18 °F 27 °F 1 °F (1936)
Degree Days  
Heating Degree Days 34 30  
Month to date heating degree days 552 507  
Since 1 July heating degree days 1279 1294  
Moisture  
Dew Point 21 °F    
Average Humidity 67    
Maximum Humidity 92    
Minimum Humidity 41    
Precipitation  
Precipitation 0.00 in 0.11 in 1.51 in (1932)
Month to date precipitation 0.85 2.18  
Year to date precipitation 30.54 35.20  
Sea Level Pressure  
Sea Level Pressure 30.48 in    
Wind  
Wind Speed - (North)    
Max Wind Speed -    
Max Gust Speed -    
T = Trace of Precipitation, MM = Missing Value Source: NWS Daily Summary

Daily Weather History Graph

Daily Weather History Graph

Search for Another Location

Airport:

Trip Planner

Search our weather history database for the weather conditions in past years. The results will help you decide how hot, cold, wet, or windy it might be!

Date:

Astronomy

Nov. 19, 2012 Rise Set
Actual Time 6:50 AM EST 4:16 PM EST
Civil Twilight 6:18 AM EST 4:48 PM EST
Nautical Twilight 5:42 AM EST 5:24 PM EST
Astronomical Twilight 5:08 AM EST 5:58 PM EST
Moon 11:46 AM EST (11/19) 10:46 PM EST (11/19)
Length of Visible Light 10h 30m
Length of Day
9h 26m
Waxing Crescent, 40% of the Moon is Illuminated
Nov 19
Waxing Crescent
Nov 20
First Quarter
Nov 28
Full
Dec 6
Last Quarter
Dec 13
New

Hourly Weather History & Observations

Time (EST) Temp. Dew Point Humidity Pressure Visibility Wind Dir Wind Speed Gust Speed Precip Events Conditions
12:54 AM 21.9 °F 19.9 °F 92% 30.63 in - North - - N/A   Unknown
1:54 AM 21.0 °F 19.0 °F 92% 30.63 in - North - - N/A   Unknown
2:54 AM 21.0 °F 18.0 °F 88% 30.62 in - North - - N/A   Unknown
3:54 AM 19.9 °F 17.1 °F 89% 30.61 in - North - - N/A   Unknown
4:54 AM 19.0 °F 17.1 °F 92% 30.61 in - North - - N/A   Unknown
5:54 AM 19.0 °F 16.0 °F 88% 30.61 in - North - - N/A   Unknown
6:54 AM 18.0 °F 15.1 °F 88% 30.60 in - North - - N/A   Unknown
7:54 AM 19.0 °F 16.0 °F 88% 30.60 in - North - - N/A   Unknown
8:54 AM 21.9 °F 19.0 °F 89% 30.58 in - North - - N/A   Unknown
9:54 AM 27.0 °F 21.0 °F 78% 30.56 in - North - - N/A   Unknown
10:54 AM 34.0 °F 21.9 °F 61% 30.52 in - North - - N/A   Unknown
11:54 AM 37.0 °F 23.0 °F 57% 30.48 in - North - - N/A   Unknown
12:54 PM 42.1 °F 23.0 °F 47% 30.45 in - North - - N/A   Unknown
1:54 PM 43.0 °F 23.0 °F 45% 30.42 in - North - - N/A   Unknown
2:54 PM 44.1 °F 23.0 °F 43% 30.40 in - North - - N/A   Unknown
3:54 PM 39.9 °F 24.1 °F 53% 30.39 in - North - - N/A   Unknown
4:54 PM 33.1 °F 24.1 °F 70% 30.39 in - North - - N/A   Unknown
5:54 PM 30.0 °F 24.1 °F 79% 30.39 in - North - - N/A   Unknown
6:54 PM 28.0 °F 23.0 °F 81% 30.39 in - North - - N/A   Unknown
7:54 PM 27.0 °F 23.0 °F 85% 30.38 in - North - - N/A   Unknown
8:54 PM 26.1 °F 21.9 °F 84% 30.36 in - North - - N/A   Unknown
9:54 PM 25.0 °F 21.0 °F 85% 30.35 in - North - - N/A   Unknown
10:54 PM 23.0 °F 19.9 °F 88% 30.32 in - North - - N/A   Unknown
11:54 PM 21.9 °F 19.0 °F 89% 30.32 in - North - - N/A   Unknown